period_start,C,m1,H,J0,J1,J2,J3,J4,J5,JA,JB,JC,JD,JJ,JK,JN,#
2013-09-29 00:00:32,0.03,0.03,0.00,23.56,28.06,30.47,6.08,29.71,1015.58,2045.98,3533.92,3337.58,3630.00,350.91,323.87,3.82,0000 0000 0000 0000 000000
2013-09-29 00:01:33,0.01,0.03,0.00,23.56,28.06,30.47,6.06,29.67,1015.58,2045.99,3533.95,3337.59,3630.00,350.41,323.41,3.83,0000 0000 0000 0000 000000
2013-09-29 00:02:33,-0.01,0.03,0.00,23.56,28.06,30.46,5.83,29.75,1015.53,2045.99,3533.96,3337.69,3630.00,348.52,321.64,3.83,0000 0000 0000 0000 000000
2013-09-29 00:03:33,-0.01,0.03,0.00,23.56,28.06,30.47,5.97,29.50,1015.56,2045.99,3533.97,3337.75,3630.00,350.46,323.48,3.84,0000 0000 0000 0000 000000
2013-09-29 00:04:33,0.02,0.03,0.00,23.57,28.05,30.47,5.93,29.54,1015.59,2045.99,3533.86,3337.51,3630.00,349.23,322.04,3.84,0000 0000 0000 0000 000000
2013-09-29 00:05:33,0.06,0.03,0.00,23.57,28.05,30.45,6.06,29.50,1015.61,2045.99,3533.80,3337.37,3630.00,350.47,323.46,3.85,0000 0000 0000 0000 000000
2013-09-29 00:06:34,-0.00,0.03,0.00,23.57,28.05,30.45,5.87,29.79,1015.54,2045.99,3533.69,3337.43,3630.00,349.44,322.48,3.86,0000 0000 0000 0000 000000
2013-09-29 00:07:34,0.03,0.03,0.00,23.56,28.05,30.45,6.15,29.67,1015.59,2045.99,3533.53,3337.32,3629.99,350.93,324.12,3.86,0000 0000 0000 0000 000000
2013-09-29 00:08:34,0.04,0.03,0.00,23.55,28.05,30.46,6.04,29.67,1015.64,2045.99,3533.35,3337.20,3629.97,350.90,323.89,3.87,0000 0000 0000 0000 000000
2013-09-29 00:09:34,0.04,0.03,0.00,23.56,28.05,30.45,6.04,29.79,1015.63,2045.99,3533.19,3337.15,3629.99,350.10,322.92,3.87,0000 0000 0000 0000 000000
2013-09-29 00:10:35,0.02,0.03,0.00,23.57,28.05,30.44,5.97,29.63,1015.62,2045.99,3533.15,3337.19,3629.99,350.05,323.16,3.88,0000 0000 0000 0000 000000
2013-09-29 00:11:35,-0.00,0.03,0.00,23.56,28.05,30.43,6.03,29.71,1015.61,2045.99,3533.12,3337.21,3629.98,350.70,323.68,3.89,0000 0000 0000 0000 000000
2013-09-29 00:12:35,0.00,0.03,0.00,23.57,28.05,30.41,6.01,29.88,1015.55,2045.99,3533.23,3337.18,3629.94,350.77,323.56,3.89,0000 0000 0000 0000 000000
2013-09-29 00:13:36,0.00,0.03,0.00,23.56,28.05,30.41,6.00,29.92,1015.56,2045.99,3533.20,3337.13,3629.96,350.60,323.32,3.90,0000 0000 0000 0000 000000
2013-09-29 00:14:36,0.01,0.03,0.00,23.55,28.05,30.42,6.01,29.71,1015.59,2045.99,3533.15,3337.10,3629.93,349.97,322.94,3.90,0000 0000 0000 0000 000000
2013-09-29 00:15:36,0.01,0.03,0.00,23.56,28.05,30.41,6.12,29.71,1015.61,2045.99,3533.12,3337.16,3629.94,350.50,323.49,3.91,0000 0000 0000 0000 000000
2013-09-29 00:16:36,0.00,0.03,0.00,23.57,28.05,30.39,6.07,29.42,1015.60,2045.99,3533.07,3337.12,3629.96,351.11,323.76,3.91,0000 0000 0000 0000 000000
2013-09-29 00:17:37,0.01,0.03,0.00,23.58,28.05,30.40,5.95,29.63,1015.48,2045.99,3533.05,3337.08,3629.95,349.78,322.77,3.92,0000 0000 0000 0000 000000
2013-09-29 00:18:37,0.00,0.03,0.00,23.59,28.05,30.41,5.92,29.79,1015.41,2045.99,3533.04,3337.05,3629.96,349.58,322.55,3.93,0000 0000 0000 0000 000000
2013-09-29 00:19:37,0.00,0.03,0.00,23.58,28.05,30.40,5.99,29.83,1015.40,2045.99,3533.04,3337.04,3629.97,349.82,322.79,3.93,0000 0000 0000 0000 000000
2013-09-29 00:20:37,0.00,0.03,0.00,23.58,28.05,30.39,6.10,29.54,1015.46,2045.99,3533.07,3337.10,3629.95,351.10,323.66,3.94,0000 0000 0000 0000 000000
2013-09-29 00:21:38,-0.01,0.03,0.00,23.60,28.05,30.43,6.02,29.50,1015.42,2045.99,3533.09,3337.11,3629.98,351.14,324.06,3.94,0000 0000 0000 0000 000000
2013-09-29 00:22:38,-0.01,0.03,0.00,23.60,28.05,30.41,6.00,29.75,1015.37,2045.99,3533.06,3337.06,3629.98,350.20,323.10,3.95,0000 0000 0000 0000 000000
2013-09-29 00:23:38,0.00,0.03,0.00,23.61,28.05,30.43,6.02,29.54,1015.33,2045.99,3533.03,3337.05,3629.93,351.05,324.11,3.96,0000 0000 0000 0000 000000
2013-09-29 00:24:38,0.00,0.03,0.00,23.60,28.05,30.42,6.03,29.71,1015.42,2045.99,3533.03,3337.09,3629.93,350.11,323.03,3.96,0000 0000 0000 0000 000000
2013-09-29 00:25:39,-0.01,0.03,0.00,23.61,28.05,30.41,5.93,29.54,1015.40,2045.99,3533.03,3337.09,3629.95,349.99,322.91,3.97,0000 0000 0000 0000 000000
2013-09-29 00:26:39,-0.00,0.03,0.00,23.61,28.05,30.41,5.96,29.54,1015.26,2045.99,3533.04,3337.08,3629.95,349.90,322.49,3.97,0000 0000 0000 0000 000000
2013-09-29 00:27:39,0.00,0.03,0.00,23.60,28.05,30.39,5.90,29.79,1015.28,2045.99,3533.02,3337.09,3629.96,349.37,322.30,3.98,0000 0000 0000 0000 000000
2013-09-29 00:28:39,0.00,0.03,0.00,23.58,28.05,30.38,5.89,29.88,1015.27,2045.99,3533.02,3337.08,3629.94,350.12,323.05,3.98,0000 0000 0000 0000 000000
2013-09-29 00:29:40,0.01,0.03,0.00,23.58,28.05,30.39,5.92,29.75,1015.29,2045.99,3533.01,3337.05,3629.93,350.17,322.73,3.99,0000 0000 0000 0000 000000
2013-09-29 00:30:40,0.01,0.03,0.00,23.59,28.05,30.39,6.00,29.63,1015.32,2045.99,3533.00,3337.06,3629.94,348.86,321.85,4.00,0000 0000 0000 0000 000000
2013-09-29 00:31:40,0.00,0.03,0.00,23.59,28.05,30.40,5.86,29.54,1015.36,2045.99,3533.00,3337.05,3629.96,348.87,321.87,4.00,0000 0000 0000 0000 000000
2013-09-29 00:32:40,0.00,0.03,0.00,23.57,28.05,30.39,6.05,29.75,1015.35,2045.99,3533.02,3337.10,3629.98,350.04,322.52,4.01,0000 0000 0000 0000 000000
2013-09-29 00:33:41,-0.01,0.03,0.00,23.57,28.05,30.41,5.91,29.58,1015.32,2045.99,3533.01,3337.09,3629.99,350.12,323.04,4.01,0000 0000 0000 0000 000000
2013-09-29 00:34:41,-0.00,0.03,0.00,23.57,28.05,30.41,5.83,29.71,1015.28,2045.99,3533.01,3337.10,3629.99,349.35,322.32,4.02,0000 0000 0000 0000 000000
2013-09-29 00:35:41,0.00,0.03,0.00,23.57,28.05,30.38,5.94,29.71,1015.23,2045.99,3533.03,3337.10,3629.99,349.92,322.98,4.03,0000 0000 0000 0000 000000
2013-09-29 00:36:41,0.00,0.03,0.00,23.57,28.05,30.34,5.98,29.71,1015.20,2045.99,3533.03,3337.09,3629.98,350.65,323.29,4.03,0000 0000 0000 0000 000000
2013-09-29 00:37:41,0.01,0.03,0.00,23.56,28.05,30.36,5.95,29.50,1015.19,2045.99,3533.02,3337.08,3629.96,350.88,323.73,4.04,0000 0000 0000 0000 000000
2013-09-29 00:38:42,0.00,0.03,0.00,23.58,28.05,30.39,5.87,29.71,1015.20,2045.99,3533.02,3337.08,3629.94,349.51,322.63,4.04,0000 0000 0000 0000 000000
2013-09-29 00:39:42,0.01,0.03,0.00,23.59,28.05,30.43,6.03,29.75,1015.23,2045.99,3533.01,3337.04,3629.87,348.93,322.49,4.05,0000 0000 0000 0000 000000
2013-09-29 00:40:42,0.02,0.03,0.00,23.59,28.05,30.41,5.99,29.96,1015.21,2045.99,3533.00,3337.02,3629.82,349.99,322.86,4.06,0000 0000 0000 0000 000000
2013-09-29 00:41:42,-0.01,0.03,0.00,23.59,28.05,30.39,5.96,29.92,1015.24,2045.99,3533.00,3337.04,3629.89,349.70,322.60,4.06,0000 0000 0000 0000 000000
2013-09-29 00:42:43,-0.00,0.03,0.00,23.59,28.05,30.39,5.99,29.54,1015.27,2045.99,3533.00,3337.03,3629.90,350.43,323.28,4.07,0000 0000 0000 0000 000000
2013-09-29 00:43:43,0.00,0.03,0.00,23.58,28.05,30.35,6.17,30.21,1015.20,2045.99,3533.00,3337.03,3629.92,350.07,322.69,4.07,0000 0000 0000 0000 000000
2013-09-29 00:44:43,0.00,0.03,0.00,23.58,28.05,30.32,5.97,29.79,1015.22,2045.99,3533.00,3337.03,3629.92,350.08,322.87,4.08,0000 0000 0000 0000 000000
2013-09-29 00:45:43,0.00,0.03,0.00,23.59,28.05,30.31,6.04,29.75,1015.21,2045.99,3533.00,3337.06,3629.95,350.13,322.72,4.08,0000 0000 0000 0000 000000
2013-09-29 00:46:43,-0.01,0.03,0.00,23.59,28.05,30.32,5.96,29.71,1015.23,2045.99,3533.00,3337.09,3629.97,349.33,322.21,4.09,0000 0000 0000 0000 000000
2013-09-29 00:47:44,-0.00,0.03,0.00,23.59,28.05,30.32,6.02,29.46,1015.26,2045.99,3533.00,3337.05,3629.97,351.13,324.16,4.10,0000 0000 0000 0000 000000
2013-09-29 00:48:44,0.01,0.03,0.00,23.59,28.05,30.36,5.94,29.63,1015.27,2045.99,3533.00,3337.03,3629.96,350.03,322.92,4.10,0000 0000 0000 0000 000000
2013-09-29 00:49:44,0.00,0.03,0.00,23.58,28.05,30.39,5.88,29.33,1015.21,2045.99,3533.00,3337.02,3629.94,349.72,322.82,4.11,0000 0000 0000 0000 000000
2013-09-29 00:50:44,0.00,0.03,0.00,23.58,28.05,30.39,6.02,29.71,1015.18,2045.99,3533.00,3337.02,3629.94,351.08,323.53,4.11,0000 0000 0000 0000 000000
2013-09-29 00:51:44,0.00,0.03,0.00,23.57,28.05,30.37,5.91,29.54,1015.21,2045.99,3533.00,3337.02,3629.94,350.18,323.06,4.12,0000 0000 0000 0000 000000
2013-09-29 00:52:44,0.00,0.03,0.00,23.57,28.05,30.39,5.88,29.58,1015.18,2045.99,3533.00,3337.03,3629.93,350.18,323.00,4.13,0000 0000 0000 0000 000000
2013-09-29 00:53:45,0.00,0.03,0.00,23.58,28.05,30.40,5.98,29.67,1015.18,2045.99,3533.00,3337.03,3629.92,349.94,322.98,4.13,0000 0000 0000 0000 000000
2013-09-29 00:54:45,0.00,0.03,0.00,23.57,28.05,30.40,5.97,29.42,1015.17,2045.99,3533.00,3337.05,3629.91,350.93,323.69,4.14,0000 0000 0000 0000 000000
2013-09-29 00:55:45,0.00,0.03,0.00,23.55,28.05,30.40,6.03,29.75,1015.16,2045.99,3533.00,3337.08,3629.91,349.62,322.55,4.14,0000 0000 0000 0000 000000
2013-09-29 00:56:45,0.00,0.03,0.00,23.55,28.05,30.41,5.88,29.83,1015.17,2045.99,3533.00,3337.05,3629.86,349.03,322.28,4.15,0000 0000 0000 0000 000000
2013-09-29 00:57:46,0.02,0.03,0.00,23.56,28.05,30.40,5.98,29.79,1015.15,2045.99,3533.00,3337.02,3629.78,349.75,322.66,4.15,0000 0000 0000 0000 000000
2013-09-29 00:58:46,0.01,0.03,0.00,23.57,28.05,30.39,6.02,29.54,1015.17,2045.99,3533.00,3337.00,3629.74,351.87,324.02,4.16,0000 0000 0000 0000 000000
2013-09-29 00:59:46,0.00,0.03,0.00,23.57,28.05,30.40,6.01,29.88,1015.16,2045.99,3533.00,3337.01,3629.72,349.75,322.12,4.17,0000 0000 0000 0000 000000
2013-09-29 01:00:46,0.00,0.03,0.00,23.57,28.05,30.41,6.03,29.79,1015.18,2045.99,3533.00,3337.00,3629.77,349.47,322.40,4.17,0000 0000 0000 0000 000000
2013-09-29 01:01:47,0.00,0.03,0.00,23.56,28.05,30.41,6.04,29.83,1015.16,2045.99,3533.00,3337.01,3629.75,349.37,322.48,4.18,0000 0000 0000 0000 000000
2013-09-29 01:02:47,0.00,0.03,0.00,23.55,28.05,30.40,6.01,29.75,1015.15,2045.99,3533.00,3337.01,3629.82,349.50,322.77,4.18,0000 0000 0000 0000 000000
2013-09-29 01:03:47,0.00,0.03,0.00,23.56,28.05,30.41,5.98,29.75,1015.15,2045.99,3533.00,3337.00,3629.72,350.14,323.01,4.19,0000 0000 0000 0000 000000
2013-09-29 01:04:47,0.01,0.03,0.00,23.59,28.05,30.40,6.02,29.46,1015.15,2045.99,3533.00,3337.00,3629.71,351.74,324.47,4.20,0000 0000 0000 0000 000000
2013-09-29 01:05:48,0.00,0.03,0.00,23.58,28.05,30.40,6.09,29.75,1015.15,2045.99,3532.99,3337.02,3629.74,350.86,323.30,4.20,0000 0000 0000 0000 000000
2013-09-29 01:06:48,0.00,0.03,0.00,23.57,28.05,30.40,6.16,29.67,1015.15,2045.99,3532.99,3337.01,3629.78,352.00,324.72,4.21,0000 0000 0000 0000 000000
2013-09-29 01:07:48,0.00,0.03,0.00,23.58,28.05,30.38,6.09,29.79,1015.15,2045.99,3532.99,3337.02,3629.80,351.00,323.78,4.21,0000 0000 0000 0000 000000
2013-09-29 01:08:48,-0.01,0.03,0.00,23.58,28.05,30.36,5.92,29.79,1015.15,2045.99,3532.99,3337.02,3629.76,350.65,323.46,4.22,0000 0000 0000 0000 000000
2013-09-29 01:09:48,-0.00,0.03,0.00,23.60,28.05,30.33,6.11,29.88,1015.15,2046.00,3532.99,3337.01,3629.79,350.19,323.03,4.23,0000 0000 0000 0000 000000
2013-09-29 01:10:49,0.00,0.03,0.00,23.59,28.05,30.33,6.02,29.67,1015.15,2046.00,3532.99,3337.02,3629.73,350.12,322.92,4.23,0000 0000 0000 0000 000000
2013-09-29 01:11:49,0.00,0.03,0.00,23.58,28.05,30.32,6.12,29.75,1015.15,2046.00,3532.99,3337.02,3629.58,350.22,323.26,4.24,0000 0000 0000 0000 000000
2013-09-29 01:12:49,0.02,0.03,0.00,23.58,28.05,30.32,6.01,29.83,1015.15,2046.00,3532.98,3337.00,3629.51,349.18,322.11,4.24,0000 0000 0000 0000 000000
2013-09-29 01:13:49,0.00,0.03,0.00,23.58,28.05,30.31,5.96,29.58,1015.15,2046.00,3532.97,3337.00,3629.51,350.17,323.04,4.25,0000 0000 0000 0000 000000
2013-09-29 01:14:50,-0.01,0.03,0.00,23.59,28.05,30.36,6.02,29.46,1015.15,2046.01,3532.98,3337.00,3629.65,350.97,324.43,4.25,0000 0000 0000 0000 000000
2013-09-29 01:15:50,-0.01,0.03,0.00,23.59,28.05,30.38,5.96,29.75,1015.15,2046.00,3532.99,3337.02,3629.80,350.02,322.87,4.26,0000 0000 0000 0000 000000
2013-09-29 01:16:50,-0.02,0.03,0.00,23.59,28.05,30.38,5.72,29.75,1015.15,2046.00,3532.97,3337.00,3629.76,347.88,321.40,4.27,0000 0000 0000 0000 000000
2013-09-29 01:17:50,0.01,0.03,0.00,23.59,28.05,30.39,5.99,29.83,1015.15,2046.00,3532.98,3337.00,3629.61,351.20,323.78,4.27,0000 0000 0000 0000 000000
2013-09-29 01:18:50,0.01,0.03,0.00,23.59,28.05,30.41,5.95,29.79,1015.15,2046.00,3532.98,3337.01,3629.61,349.74,323.03,4.28,0000 0000 0000 0000 000000
2013-09-29 01:19:51,0.00,0.03,0.00,23.60,28.05,30.39,6.03,29.79,1015.15,2046.01,3532.96,3337.00,3629.71,350.03,322.72,4.28,0000 0000 0000 0000 000000
2013-09-29 01:20:51,0.00,0.03,0.00,23.60,28.05,30.34,5.97,29.88,1015.15,2046.00,3532.98,3337.00,3629.64,348.58,321.54,4.29,0000 0000 0000 0000 000000
2013-09-29 01:21:51,0.00,0.03,0.00,23.59,28.05,30.32,5.98,29.71,1015.15,2046.00,3532.98,3337.00,3629.51,350.17,322.85,4.30,0000 0000 0000 0000 000000
2013-09-29 01:22:51,0.02,0.03,0.00,23.57,28.05,30.32,5.99,29.67,1015.15,2046.00,3532.97,3337.00,3629.46,350.59,323.12,4.30,0000 0000 0000 0000 000000
2013-09-29 01:23:52,0.00,0.03,0.00,23.58,28.04,30.36,5.92,29.88,1015.15,2046.00,3532.86,3337.01,3629.47,350.03,322.89,4.31,0000 0000 0000 0000 000000
2013-09-29 01:24:52,0.03,0.03,0.00,23.57,28.05,30.38,5.94,29.88,1015.15,2046.00,3532.81,3337.00,3629.36,350.37,323.21,4.31,0000 0000 0000 0000 000000
2013-09-29 01:25:52,0.00,0.03,0.00,23.59,28.05,30.38,6.12,29.67,1015.15,2046.00,3532.81,3337.00,3629.33,350.15,323.11,4.32,0000 0000 0000 0000 000000
2013-09-29 01:26:52,0.00,0.03,0.00,23.57,28.05,30.38,6.04,29.88,1015.15,2046.00,3532.75,3337.00,3629.34,350.81,323.16,4.32,0000 0000 0000 0000 000000
2013-09-29 01:27:53,0.00,0.03,0.00,23.58,28.04,30.39,5.96,29.83,1015.15,2046.00,3532.77,3337.00,3629.31,349.99,322.85,4.33,0000 0000 0000 0000 000000
2013-09-29 01:28:53,0.00,0.03,0.00,23.57,28.04,30.40,5.95,29.92,1015.15,2046.00,3532.81,3337.01,3629.33,349.36,322.64,4.34,0000 0000 0000 0000 000000
2013-09-29 01:29:53,-0.01,0.03,0.00,23.58,28.04,30.37,6.07,29.83,1015.15,2046.00,3532.82,3337.03,3629.36,350.40,323.52,4.34,0000 0000 0000 0000 000000
2013-09-29 01:30:53,-0.01,0.03,0.00,23.59,28.05,30.32,5.98,29.71,1015.15,2046.01,3532.89,3337.02,3629.40,349.99,322.50,4.35,0000 0000 0000 0000 000000
2013-09-29 01:31:53,0.00,0.03,0.00,23.59,28.05,30.30,5.93,29.79,1015.15,2046.00,3532.81,3337.00,3629.26,350.16,322.82,4.35,0000 0000 0000 0000 000000
2013-09-29 01:32:54,0.02,0.03,0.00,23.58,28.04,30.31,6.03,29.71,1015.15,2046.01,3532.70,3337.00,3629.16,350.37,323.47,4.36,0000 0000 0000 0000 000000
2013-09-29 01:33:54,0.04,0.03,0.00,23.59,28.05,30.34,5.97,29.96,1015.15,2046.00,3532.70,3337.01,3629.15,349.52,321.96,4.37,0000 0000 0000 0000 000000
2013-09-29 01:34:54,-0.02,0.03,0.00,23.59,28.04,30.33,5.89,29.75,1015.15,2046.00,3532.68,3337.01,3629.14,349.53,322.45,4.37,0000 0000 0000 0000 000000
2013-09-29 01:35:54,0.02,0.03,0.00,23.58,28.04,30.32,5.92,29.92,1015.15,2046.00,3532.75,3337.01,3629.26,349.57,322.47,4.38,0000 0000 0000 0000 000000
2013-09-29 01:36:54,-0.03,0.03,0.00,23.57,28.04,30.33,5.96,29.75,1015.15,2046.00,3532.67,3337.00,3629.22,350.18,322.98,4.38,0000 0000 0000 0000 000000
2013-09-29 01:37:55,0.02,0.03,0.00,23.57,28.04,30.32,5.82,29.83,1015.15,2046.00,3532.70,3337.01,3629.21,348.64,321.78,4.39,0000 0000 0000 0000 000000
2013-09-29 01:38:55,0.00,0.03,0.00,23.57,28.04,30.32,5.89,29.71,1015.15,2046.00,3532.60,3337.02,3629.18,350.69,323.28,4.39,0000 0000 0000 0000 000000
2013-09-29 01:39:55,0.01,0.03,0.00,23.57,28.04,30.33,5.93,29.71,1015.15,2046.01,3532.46,3337.00,3629.15,349.29,322.53,4.40,0000 0000 0000 0000 000000
2013-09-29 01:40:55,0.04,0.03,0.00,23.57,28.04,30.36,6.04,29.83,1015.15,2046.00,3532.41,3337.00,3629.19,351.10,323.63,4.41,0000 0000 0000 0000 000000
2013-09-29 01:41:55,-0.01,0.03,0.00,23.57,28.04,30.40,5.92,29.75,1015.15,2046.03,3532.46,3337.01,3629.21,350.07,323.19,4.41,0000 0000 0000 0000 000000
2013-09-29 01:42:55,0.01,0.03,0.00,23.57,28.04,30.40,6.05,30.17,1015.15,2046.02,3532.33,3337.00,3629.15,349.71,322.80,4.42,0000 0000 0000 0000 000000
2013-09-29 01:43:55,0.00,0.03,0.00,23.58,28.03,30.41,5.97,30.17,1015.15,2046.00,3532.21,3337.00,3629.09,350.52,323.20,4.42,0000 0000 0000 0000 000000
2013-09-29 01:44:55,0.01,0.03,0.00,23.59,28.03,30.44,5.98,29.79,1015.15,2046.00,3532.18,3337.00,3629.06,351.00,323.78,4.43,0000 0000 0000 0000 000000
2013-09-29 01:45:56,0.00,0.03,0.00,23.59,28.04,30.40,6.09,29.83,1015.15,2046.00,3532.20,3337.00,3629.08,350.63,323.43,4.44,0000 0000 0000 0000 000000
2013-09-29 01:46:56,0.01,0.03,0.00,23.58,28.03,30.40,5.91,29.79,1015.15,2046.00,3532.17,3337.00,3629.07,349.65,322.35,4.44,0000 0000 0000 0000 000000
2013-09-29 01:47:56,0.00,0.03,0.00,23.58,28.04,30.39,6.05,29.92,1015.15,2046.00,3532.21,3337.00,3629.05,350.28,323.19,4.45,0000 0000 0000 0000 000000
2013-09-29 01:48:56,0.00,0.03,0.00,23.57,28.03,30.38,5.90,29.79,1015.15,2046.00,3532.19,3337.00,3629.03,349.34,322.27,4.45,0000 0000 0000 0000 000000
2013-09-29 01:49:57,0.00,0.03,0.00,23.57,28.03,30.40,6.09,29.88,1015.16,2046.01,3532.15,3337.01,3629.02,351.11,323.90,4.46,0000 0000 0000 0000 000000
2013-09-29 01:50:57,0.01,0.03,0.00,23.56,28.03,30.39,5.92,29.83,1015.15,2046.00,3532.11,3337.00,3629.01,350.59,323.40,4.47,0000 0000 0000 0000 000000
2013-09-29 01:51:57,0.00,0.03,0.00,23.57,28.03,30.39,5.89,30.00,1015.16,2046.00,3532.10,3337.00,3629.04,348.54,321.53,4.47,0000 0000 0000 0000 000000
2013-09-29 01:52:57,0.00,0.03,0.00,23.57,28.03,30.41,5.97,30.04,1015.17,2046.00,3532.17,3337.01,3629.06,349.72,322.63,4.48,0000 0000 0000 0000 000000
2013-09-29 01:53:57,0.00,0.03,0.00,23.57,28.03,30.38,5.78,29.71,1015.16,2046.00,3532.13,3337.01,3629.03,349.21,322.16,4.48,0000 0000 0000 0000 000000
2013-09-29 01:54:58,0.00,0.03,0.00,23.58,28.03,30.37,6.00,29.79,1015.15,2046.01,3532.14,3337.00,3629.02,349.66,322.55,4.49,0000 0000 0000 0000 000000
2013-09-29 01:55:58,0.00,0.03,0.00,23.58,28.03,30.38,5.77,29.79,1015.15,2046.02,3532.18,3337.00,3629.01,348.43,321.36,4.49,0000 0000 0000 0000 000000
2013-09-29 01:56:58,0.00,0.03,0.00,23.57,28.03,30.38,5.98,29.83,1015.16,2046.00,3532.17,3337.00,3629.00,350.04,322.67,4.50,0000 0000 0000 0000 000000
2013-09-29 01:57:58,-0.01,0.03,0.00,23.57,28.02,30.34,5.97,29.92,1015.17,2046.00,3532.11,3337.01,3629.02,350.02,323.14,4.51,0000 0000 0000 0000 000000
2013-09-29 01:58:58,0.00,0.03,0.00,23.57,28.02,30.29,5.98,29.79,1015.17,2046.00,3532.11,3337.00,3629.03,350.39,323.24,4.51,0000 0000 0000 0000 000000
2013-09-29 01:59:58,0.00,0.03,0.00,23.57,28.02,30.31,6.10,29.96,1015.16,2046.01,3532.11,3337.00,3629.01,349.57,322.17,4.52,0000 0000 0000 0000 000000
2013-09-29 02:00:59,0.00,0.03,0.00,23.58,28.03,30.37,6.14,29.83,1015.17,2046.00,3532.10,3337.00,3629.01,350.89,323.66,4.52,0000 0000 0000 0000 000000
2013-09-29 02:01:59,0.00,0.03,0.00,23.59,28.02,30.38,5.88,29.83,1015.19,2046.00,3532.05,3337.00,3629.01,348.48,321.34,4.53,0000 0000 0000 0000 000000
2013-09-29 02:02:59,0.01,0.03,0.00,23.60,28.02,30.39,5.94,29.96,1015.16,2046.00,3532.04,3337.00,3629.00,348.82,321.76,4.54,0000 0000 0000 0000 000000
2013-09-29 02:03:59,0.00,0.03,0.00,23.61,28.02,30.38,6.08,29.71,1015.17,2046.00,3532.03,3337.00,3629.00,350.34,322.92,4.54,0000 0000 0000 0000 000000
2013-09-29 02:04:59,0.00,0.03,0.00,23.60,28.02,30.36,5.90,29.67,1015.20,2046.01,3532.06,3337.00,3629.03,348.85,321.81,4.55,0000 0000 0000 0000 000000
2013-09-29 02:06:00,0.00,0.03,0.00,23.60,28.02,30.37,5.96,29.88,1015.17,2046.00,3532.04,3337.00,3629.02,349.66,322.31,4.55,0000 0000 0000 0000 000000
2013-09-29 02:07:00,0.00,0.03,0.00,23.61,28.02,30.37,5.98,29.75,1015.18,2046.03,3532.04,3337.00,3629.00,349.66,322.47,4.56,0000 0000 0000 0000 000000
2013-09-29 02:08:00,0.03,0.03,0.00,23.60,28.02,30.32,6.05,29.71,1015.20,2046.04,3532.03,3337.00,3629.01,349.87,323.12,4.56,0000 0000 0000 0000 000000
2013-09-29 02:09:00,-0.01,0.03,0.00,23.61,28.02,30.29,5.99,29.75,1015.20,2046.02,3532.06,3337.00,3629.02,349.70,323.21,4.57,0000 0000 0000 0000 000000
2013-09-29 02:10:00,-0.01,0.03,0.00,23.62,28.02,30.31,6.04,29.83,1015.17,2046.03,3532.05,3337.01,3629.02,349.79,322.65,4.58,0000 0000 0000 0000 000000
2013-09-29 02:11:00,0.01,0.03,0.00,23.61,28.03,30.33,5.92,29.92,1015.17,2046.02,3532.04,3337.00,3629.03,347.98,321.26,4.58,0000 0000 0000 0000 000000
2013-09-29 02:12:00,-0.01,0.03,0.00,23.61,28.03,30.36,5.86,29.83,1015.19,2046.02,3532.03,3337.00,3629.01,349.22,321.90,4.59,0000 0000 0000 0000 000000
2013-09-29 02:13:01,0.00,0.03,0.00,23.61,28.02,30.38,6.04,29.92,1015.20,2046.00,3532.03,3337.00,3629.01,349.76,322.63,4.59,0000 0000 0000 0000 000000
2013-09-29 02:14:01,0.00,0.03,0.00,23.61,28.03,30.39,5.93,29.63,1015.16,2046.00,3532.03,3337.01,3629.03,350.63,323.66,4.60,0000 0000 0000 0000 000000
2013-09-29 02:15:01,-0.01,0.03,0.00,23.61,28.03,30.37,5.88,29.67,1015.17,2046.01,3532.01,3337.00,3629.03,348.96,321.94,4.61,0000 0000 0000 0000 000000
2013-09-29 02:16:01,0.02,0.03,0.00,23.60,28.03,30.38,5.94,29.71,1015.17,2046.05,3532.01,3337.00,3629.02,350.32,323.14,4.61,0000 0000 0000 0000 000000
2013-09-29 02:17:01,0.02,0.03,0.00,23.61,28.03,30.38,6.20,30.04,1015.18,2046.04,3532.01,3337.01,3629.01,349.34,322.46,4.62,0000 0000 0000 0000 000000
2013-09-29 02:18:02,-0.01,0.03,0.00,23.61,28.02,30.39,6.02,29.92,1015.19,2046.01,3532.01,3337.03,3629.02,350.07,322.66,4.62,0000 0000 0000 0000 000000
2013-09-29 02:19:02,-0.02,0.03,0.00,23.61,28.02,30.37,5.87,29.96,1015.16,2046.02,3532.04,3337.01,3629.03,349.34,322.23,4.63,0000 0000 0000 0000 000000
2013-09-29 02:20:02,0.00,0.03,0.00,23.62,28.03,30.36,6.04,29.96,1015.17,2046.01,3532.03,3337.01,3629.02,350.18,323.29,4.63,0000 0000 0000 0000 000000
2013-09-29 02:21:02,0.00,0.03,0.00,23.63,28.03,30.33,5.98,30.00,1015.18,2046.00,3532.01,3337.00,3629.00,349.82,322.79,4.64,0000 0000 0000 0000 000000
2013-09-29 02:22:03,0.00,0.03,0.00,23.63,28.03,30.33,5.80,29.79,1015.18,2046.01,3532.00,3337.00,3629.00,348.50,321.63,4.65,0000 0000 0000 0000 000000
2013-09-29 02:23:03,0.00,0.03,0.00,23.64,28.03,30.31,6.08,29.83,1015.17,2046.00,3532.00,3337.00,3629.00,350.90,323.63,4.65,0000 0000 0000 0000 000000
2013-09-29 02:24:03,0.00,0.03,0.00,23.64,28.03,30.31,5.95,29.58,1015.17,2046.00,3532.00,3337.00,3629.00,350.59,323.41,4.66,0000 0000 0000 0000 000000
2013-09-29 02:25:04,0.00,0.03,0.00,23.64,28.03,30.29,5.88,29.63,1015.19,2046.01,3532.00,3337.00,3629.00,350.91,323.65,4.66,0000 0000 0000 0000 000000
2013-09-29 02:26:04,0.00,0.03,0.00,23.64,28.03,30.29,5.84,29.96,1015.18,2046.02,3532.00,3337.00,3629.00,349.10,321.98,4.67,0000 0000 0000 0000 000000
2013-09-29 02:27:04,0.00,0.03,0.00,23.63,28.03,30.28,6.13,29.88,1015.18,2046.03,3532.00,3337.00,3629.00,350.80,323.57,4.68,0000 0000 0000 0000 000000
2013-09-29 02:28:04,0.01,0.03,0.00,23.60,28.03,30.28,6.08,29.71,1015.17,2046.01,3532.00,3337.00,3629.00,350.82,323.60,4.68,0000 0000 0000 0000 000000
2013-09-29 02:29:04,-0.01,0.03,0.00,23.58,28.04,30.29,6.01,29.83,1015.16,2046.00,3532.00,3337.00,3629.00,350.30,323.01,4.69,0000 0000 0000 0000 000000
2013-09-29 02:30:04,0.00,0.03,0.00,23.57,28.04,30.30,5.97,29.79,1015.16,2046.00,3532.00,3337.00,3629.00,349.81,322.33,4.69,0000 0000 0000 0000 000000
2013-09-29 02:31:05,0.00,0.03,0.00,23.57,28.04,30.31,5.98,29.75,1015.17,2046.00,3532.00,3337.00,3629.00,350.10,322.87,4.70,0000 0000 0000 0000 000000
2013-09-29 02:32:05,0.00,0.03,0.00,23.61,28.04,30.32,6.05,29.67,1015.19,2046.01,3532.00,3337.00,3629.00,350.96,323.73,4.70,0000 0000 0000 0000 000000
2013-09-29 02:33:05,0.01,0.03,0.00,23.60,28.04,30.29,5.92,29.63,1015.17,2046.00,3532.00,3337.00,3629.00,349.43,322.32,4.71,0000 0000 0000 0000 000000
2013-09-29 02:34:06,0.00,0.03,0.00,23.58,28.04,30.27,5.92,29.79,1015.16,2046.00,3531.99,3337.00,3629.00,349.96,323.13,4.72,0000 0000 0000 0000 000000
2013-09-29 02:35:06,0.00,0.03,0.00,23.57,28.04,30.28,5.88,29.79,1015.15,2046.01,3531.99,3337.00,3629.00,350.36,323.21,4.72,0000 0000 0000 0000 000000
2013-09-29 02:36:06,0.00,0.03,0.00,23.55,28.05,30.28,5.92,30.00,1015.17,2046.00,3531.99,3337.00,3629.00,350.98,323.81,4.73,0000 0000 0000 0000 000000
2013-09-29 02:37:06,0.00,0.03,0.00,23.55,28.05,30.29,5.95,29.71,1015.18,2046.02,3531.99,3337.00,3629.00,350.28,323.17,4.73,0000 0000 0000 0000 000000